Back to catalog

NIMBUS 2 DEB

AliveLEO
NORAD 37892·DEBRIS·🇺🇸 United States

Launched May 15, 1966 from Vandenberg Space Force Base

Loading…

Next Passes (next 24 hours)

TLE

FreshSource: Space-Track

Epoch: Sep 14, 2026, 09:32 UTC

1 37892U 66040AX  26257.39732693  .00001388  00000-0  22904-2 0  9998
2 37892 100.5011 220.8694 0053370 342.9235 168.6425 13.48552917373905

Track NIMBUS 2 DEB in real time with AllMySat

Download on the App Store